Regional Weather Roundup
Issued by NWS

Home | Current Version | Previous Version | Graphics & Text | Print | Product List | Glossary On
Versions: 1 2 3 4 5 6 7 8 9 10 11 12 13 14 15 16 17 18 19 20 21 22 23 24 25 26 27 28 29 30 31 32 33 34 35 36 37 38 39 40 41 42 43 44 45 46 47 48 49 50
000
ASUS43 KOAX 310902
RWRNE

WEATHER ROUNDUP FOR NEBRASKA
NATIONAL WEATHER SERVICE OMAHA NE
400 AM CDT SUN AUG 31 2014

NOTES: SATELLITE DATA IS BEING USED TO AUGMENT CLOUD COVER ABOVE
       12000 FEET.
       "FAIR" INDICATES FEW OR NO CLOUDS BELOW 12,000 FEET WITH NO
       SIGNIFICANT WEATHER AND/OR OBSTRUCTIONS TO VISIBILITY.

  * THESE STATIONS DO NOT REPORT WEATHER SUCH AS RAIN...SNOW OR FOG.

NEZ001>004-019>022-054>056-311000-
NEBRASKA PANHANDLE

CITY           SKY/WX    TMP DP  RH WIND       PRES   REMARKS
SCOTTSBLUFF    PTCLDY    56  52  86 CALM      29.84F
ALLIANCE       CLEAR     55  50  83 SW3       29.82F
CHADRON        CLEAR     55  52  89 W8        29.78F
KIMBALL        PTCLDY    57  49  75 W5        29.89S
SIDNEY         PTCLDY    56  48  74 SW3       29.87F
$$

NEZ057>060-069>072-079>082-311000-
SOUTHWEST NEBRASKA

CITY           SKY/WX    TMP DP  RH WIND       PRES   REMARKS
NORTH PLATTE   CLOUDY    65  57  75 SE5       29.78F
IMPERIAL       MOCLDY    66  54  65 S6        29.81S
LEXINGTON      PTCLDY    71  58  65 S14       29.78F
MCCOOK         CLOUDY    75  56  51 SW14      29.81F
OGALLALA       MOCLDY    58  55  91 SW5       29.81R
$$

NEZ005>010-023>029-035>040-094-311000-
NORTH CENTRAL NEBRASKA

CITY           SKY/WX    TMP DP  RH WIND       PRES   REMARKS
VALENTINE      CLOUDY    72  54  53 NW9       29.74S
AINSWORTH      CLOUDY    67  58  73 S6        29.72F
BROKEN BOW     PTCLDY    66  58  75 SE7       29.79F
O`NEILL        PTCLDY    67  64  89 S5        29.76R
ORD            MOCLDY    65  61  87 SE3       29.78F
THEDFORD       CLOUDY    67  58  73 CALM      29.76R
$$

NEZ041-046>049-061>064-073>077-083>087-311000-
SOUTH CENTRAL NEBRASKA

CITY           SKY/WX    TMP DP  RH WIND       PRES   REMARKS
GRAND ISLAND   PTCLDY    67  61  81 S9        29.80F
AURORA         CLEAR     66  63  89 S7        29.80F
HASTINGS       MOCLDY    69  58  67 S5        29.81F
HEBRON         CLEAR     64  59  85 CALM      29.82S
HOLDREGE       LGT RAIN  68  58  72 S6        29.81F
KEARNEY *      PTCLDY    68  59  73 S10       29.81F
$$

NEZ011>018-030>034-042>045-311000-
NORTHEAST NEBRASKA

CITY           SKY/WX    TMP DP  RH WIND       PRES   REMARKS
NORFOLK        CLEAR     70  62  76 S17       29.76F
ALBION         CLEAR     65  61  87 CALM      29.81R
BLAIR          CLEAR     70  65  84 S9        29.82F
FREMONT        CLEAR     71  65  81 SE9       29.81F
TEKAMAH        CLEAR     64  62  93 SE5       29.80F
WAYNE          CLEAR     67  64  92 S9        29.77F
$$

NEZ050>053-065>068-078-088>093-311000-
SOUTHEAST NEBRASKA

CITY           SKY/WX    TMP DP  RH WIND       PRES   REMARKS
LINCOLN        CLEAR     68  63  84 S9        29.82F
OMAHA EPPLEY   CLEAR     70  65  84 S12       29.82F
BEATRICE       CLEAR     69  64  84 S7        29.83S
FALLS CITY     CLEAR     68  65  90 SE6       29.84F
NEBRASKA CITY  CLEAR     68  68 100 S9        29.84F
PLATTSMOUTH    CLEAR     70  65  85 SE9       29.84S
$$

NEZ044-045-051>053-067-311000-
OMAHA AREA

CITY           SKY/WX    TMP DP  RH WIND       PRES   REMARKS
OMAHA EPPLEY   CLEAR     70  65  84 S12       29.82F
BLAIR          CLEAR     70  65  84 S9        29.82F
FREMONT        CLEAR     71  65  81 SE9       29.81F
MILLARD        CLEAR     69  66  89 SE5       29.82F
OFFUTT AFB     CLEAR     68  68 100 E6        29.83F
PLATTSMOUTH    CLEAR     70  65  85 SE9       29.84S
WAHOO          FAIR      65  62  90 SE7       29.80F
$$


USA.gov is the U.S. government's official web portal to all federal, state and local government web resources and services.